Terug naar catalogus

STARLINK-34210

ActiefCommunicatieSSO
NORAD 65653·PAYLOAD·🇺🇸 United States

Gelanceerd Sep 19, 2025 vanaf Vandenberg Space Force Base

Loading…

Volgende Passages (komende 24 uur)

TLE

VersSource: CelesTrak SupGP

Epoch: Sep 15, 2026, 03:25 UTC

1 65653C 25211B   26258.14284722 -.00037701  00000+0 -11702-2 0  2589
2 65653  97.2833 298.4433 0000940  95.1201 203.9539 15.33462505    19

Volg STARLINK-34210 in realtime met AllMySat

Download on the App Store